SCP
-0 0 0 0 -0 -0 -0 -0 -0 -0 -0 -0 -0 -0 -0 -0 0 0 0 0 0 0 0 0 0 0 0 0 0 0 -0 -0 -0 -0 0 0 0 0 0 -0 -0 0 -0
0 0 0 0 0 -0 -0 -0 -0 -0 -0 -0 -0 -0 -0 0 0 0 0 0 0 0 0 0 0 0 0 0 0 0 0 0 -0 -0 0 -0 -0 -0 0 0 -0 0 -0
-0 0 0 0 0 -0 -0 -0 -0 -0 -0 -0 0 0 0 0 0 0 0 0 0 0 0 0 0 0 0 0 0 0 0 0 0 -0 0 -0 -0 -0 0 -0 0 -0 -0
0 0 0 0 -0 -0 -0 0 0 0 0 0 0 0 0 0 0 0 0 0 0 0 0 0 0 0 0 0 0 0 0 0 0 0 -0 -0 -0 -0 0 0 0 0 0
0 0 0 -0 -0 -0 -0 -0 0 0 0 0 0 0 0 0 0 0 0 0 0 0 0 0 0 0 0 0 0 0 0 0 0 0 0 -0 -0 -0 0 0 0 0 0
0 0 0 -0 -0 -0 -0 -0 0 0 0 0 0 0 0 0 0 0 0 0 0 0 0 0 0 0 0 0 0 0 0 0 0 0 0 0 -0 -0 0 0 0 0 0
-0 0 0 0 0 0 0 0 0 0 0 0 0 0 0 0 0 0 0 0 0 0 0 0 0 0 0 0 0 0 0 0 0 0 0 0 0 0 0 0 0 0 0
0 0 0 0 0 0 0 0 0 0 0 0 0 0 0 0 0 0 0 0 0 0 0 0 0 0 0 0 0 0 0 0 0 0 0 0 0 0 0 1 0 0 0
0 -0 0 -0 -0 0 0 0 0 0 0 0 0 0 0 0 0 0 0 0 0 0 0 0 0 0 0 0 0 0 0 0 0 0 0 0 0 1 1 1 0 0 0
-0 -0 -0 -0 -0 -0 -0 -0 -0 0 0 0 0 0 0 0 0 0 1 1 0 0 0 1 1 0 0 0 0 0 0 0 0 0 0 0 0 0 0 0 0 0 0
-0 -0 -0 -0 0 0 0 0 0 0 0 0 0 0 -0 -0 -0 0 0 0 0 1 0 0 1 1 0 0 0 0 0 0 0 0 0 0 1 0 1 1 1 0 0
0 0 0 0 0 0 0 0 0 0 0 0 0 0 -0 0 0 0 0 0 1 1 1 1 0 1 1 1 0 0 0 0 0 0 0 0 1 1 0 0 0 0 0
0 0 0 0 0 0 0 0 0 0 0 0 -0 0 0 0 0 0 0 0 0 0 1 1 0 0 1 0 0 0 0 0 0 0 0 0 0 0 0 0 0 0 0
0 0 0 0 0 0 0 0 0 0 0 0 0 0 0 0 0 0 0 0 0 0 0 0 0 0 0 0 0 0 0 0 0 0 0 0 0 0 0 0 0 0 0
0 0 0 0 0 0 0 0 0 0 0 0 0 0 0 0 0 0 -0 0 0 0 0 0 0 0 1 0 0 0 0 0 0 0 0 0 0 0 0 0 0 0 0
0 0 0 0 0 0 0 0 0 0 0 0 0 0 0 0 0 0 0 0 0 0 0 0 0 0 0 0 0 0 0 0 0 0 0 0 0 0 0 0 0 0 0
0 0 0 0 0 0 0 0 0 0 0 0 0 0 0 0 0 0 0 -0 -0 0 0 0 0 -0 0 0 0 0 0 0 0 0 0 0 0 0 0 0 0 0 0
0 0 0 0 0 0 0 0 0 0 0 0 0 0 0 0 0 0 0 0 0 0 0 0 0 0 0 0 0 -0 0 0 0 0 0 0 0 0 0 0 0 0 0
0 0 0 0 0 0 0 0 0 0 0 0 0 0 0 0 0 0 0 0 0 0 0 0 0 0 0 0 0 0 0 0 0 0 0 0 0 0 0 0 0 0 0
0 0 0 0 0 0 0 0 0 0 0 0 0 0 0 0 0 0 0 0 0 0 0 0 0 0 0 0 0 0 0 0 0 0 0 0 0 0 0 0 0 0 0
0 0 0 0 0 0 0 0 0 0 0 0 0 0 0 0 0 0 0 0 0 0 0 0 0 0 0 0 0 0 0 0 0 0 0 0 0 0 0 0 0 0 0
0 0 0 0 0 0 0 0 0 0 0 0 0 0 0 0 0 0 0 0 0 0 0 0 0 0 0 0 0 0 0 0 0 0 0 0 0 0 0 0 0 0 0
0 0 0 0 0 0 0 0 0 0 0 0 0 0 0 0 0 0 0 0 0 0 0 0 0 0 0 0 0 0 0 0 0 0 0 0 0 0 0 0 0 0 0
0 0 0 0 0 0 0 -0 0 0 0 0 0 0 0 0 0 0 0 0 0 0 0 0 0 0 0 0 0 0 0 0 0 0 0 0 0 0 0 0 0 0 0
0 0 -0 -0 -0 -0 -0 -0 -0 -0 -0 0 0 0 0 0 0 0 0 0 0 0 0 0 0 0 0 0 0 0 0 0 0 0 0 0 0 0 0 0 0 0 0
0 0 -0 -0 -0 -0 -0 -0 -0 -0 -0 -0 0 0 0 0 0 0 0 0 0 0 0 0 0 0 0 0 0 0 0 0 0 0 0 0 0 0 0 0 0 0 0
Wind_Speed_500mb
14 15 13 13 13 17 15 10 10 11 13 15 18 19 19 17 15 15 15 14 12 8 5 4 7 10 12 14 16 17 16 15 20 23 25 27 27 26 25 23 21 20 18
16 14 12 12 15 18 17 12 10 11 12 13 15 16 16 16 16 15 13 10 8 6 3 2 4 5 7 9 11 10 9 9 7 11 17 19 20 20 22 23 22 19 18
20 13 13 11 16 18 16 14 11 11 10 9 11 13 13 13 14 12 10 9 7 6 5 3 2 2 4 6 9 10 7 5 9 8 6 10 13 14 15 17 16 16 16
18 15 14 13 15 17 14 11 10 9 9 8 8 9 9 10 11 10 7 4 2 1 1 0 0 0 2 6 10 12 13 13 11 11 7 5 5 6 6 8 9 8 8
16 14 16 13 13 14 14 11 10 9 9 8 6 4 4 5 7 8 7 5 4 4 3 4 6 7 7 8 10 13 16 18 19 18 15 14 11 10 9 4 7 4 3
18 15 16 13 11 11 10 8 6 6 6 6 6 3 1 3 6 9 10 10 10 10 10 12 14 15 14 12 12 13 16 20 24 25 21 19 17 13 15 10 8 6 7
27 22 21 17 14 12 11 9 8 8 7 6 5 4 3 5 7 10 12 13 14 15 17 18 19 19 17 15 15 16 18 21 24 25 29 27 23 19 17 16 10 6 6
24 23 19 18 18 16 15 13 10 10 9 8 8 8 9 9 10 11 13 15 17 19 20 21 21 20 19 18 18 19 20 22 24 26 31 34 30 25 23 21 17 11 12
25 22 20 21 24 18 15 15 15 14 14 15 14 12 11 12 12 12 13 15 18 21 22 23 23 22 23 23 22 22 23 25 26 26 28 30 31 24 27 22 20 16 18
26 21 21 27 27 22 19 19 16 12 11 12 11 10 10 8 4 7 7 9 11 16 19 20 22 24 25 27 27 28 26 25 25 24 25 26 28 24 26 26 24 21 24
30 27 28 24 18 18 19 20 23 19 14 14 15 19 18 19 15 24 22 21 16 14 22 23 23 25 26 24 27 32 29 25 25 24 24 24 30 25 25 28 26 25 29
23 17 17 18 11 12 13 10 5 8 13 14 18 20 34 34 42 45 35 28 32 32 26 26 28 23 29 29 26 26 27 26 25 19 23 23 29 28 23 21 23 26 27
22 22 24 16 10 6 5 5 7 11 17 21 23 28 28 35 42 59 60 48 41 29 21 26 33 21 34 35 22 25 26 26 22 14 18 22 21 21 22 21 24 26 24
23 20 9 9 6 8 8 8 11 12 13 20 28 25 30 41 41 50 54 54 44 38 48 33 30 21 31 33 33 29 29 31 33 28 25 18 15 20 21 21 22 21 21
16 7 1 1 4 2 7 11 12 16 23 28 27 23 23 22 25 31 39 28 12 16 18 20 21 18 31 36 34 31 31 33 34 36 29 35 34 27 33 33 33 33 29
4 6 8 8 7 12 15 15 18 20 17 15 13 12 16 10 12 20 7 6 10 20 21 19 32 21 14 29 33 39 40 32 32 31 33 37 44 45 39 36 35 38 38
8 14 10 7 10 9 10 7 10 10 8 6 11 10 11 9 7 8 13 19 27 20 20 25 22 19 22 18 20 31 53 41 34 33 36 42 48 48 40 39 40 38 41
14 14 14 15 12 12 8 5 6 4 3 4 2 1 5 10 13 17 21 26 27 25 19 24 30 35 42 46 49 53 53 45 38 33 36 39 41 43 44 44 43 46 47
22 20 18 14 15 17 11 6 4 7 3 2 4 6 9 17 18 23 28 31 32 33 31 28 30 31 37 40 49 52 52 47 44 40 41 37 36 37 41 46 53 58 52
19 21 23 22 20 11 2 9 6 11 6 3 7 11 16 21 25 26 29 33 35 36 38 38 39 35 36 45 52 56 56 53 49 48 46 46 50 48 48 48 49 51 52
25 24 25 21 20 6 2 2 4 7 6 11 15 19 23 27 31 35 37 39 39 39 38 40 43 42 40 44 46 57 56 46 45 42 46 46 43 42 48 48 47 46 50
26 28 26 27 25 24 20 14 13 14 19 23 26 29 33 39 43 45 48 50 52 52 48 46 44 44 40 35 31 36 39 40 38 36 33 26 23 35 41 41 38 37 41
26 31 31 32 31 30 28 23 20 21 24 27 30 34 36 39 41 45 47 49 50 51 54 55 53 49 49 43 31 25 20 15 24 33 43 46 48 43 41 42 38 31 32
30 32 35 38 39 40 41 42 41 37 36 36 38 39 39 38 37 37 38 39 40 41 41 38 36 40 44 45 45 31 34 30 15 17 34 41 41 44 34 26 25 26 32
24 29 33 38 44 50 52 49 43 38 35 34 32 31 30 29 30 30 30 29 30 32 30 29 27 26 25 28 29 33 40 40 41 39 39 35 41 40 37 28 31 29 29
16 24 36 43 50 54 53 47 41 37 36 35 34 31 28 24 24 24 24 24 25 26 25 25 24 24 24 22 20 20 22 26 31 33 32 31 32 30 29 22 22 24 28
Wind_Direction_500mb
169 154 141 137 156 166 163 140 110 100 111 123 129 128 125 129 135 139 144 149 154 155 140 91 94 95 108 124 122 108 92 91 79 78 80 77 74 76 79 86 94 105 116
187 156 133 136 153 164 162 145 119 101 103 120 131 129 129 134 139 141 148 159 174 187 199 137 101 97 112 138 145 135 111 104 102 92 82 84 82 74 74 74 80 90 102
176 144 121 129 148 157 161 156 141 120 105 112 138 143 140 142 144 144 148 158 172 182 185 187 180 141 149 167 177 191 195 171 143 119 145 115 97 81 69 68 63 69 83
163 140 114 124 146 156 163 162 154 144 128 121 139 152 158 165 169 169 168 163 180 271 275 268 54 160 220 203 200 203 213 217 212 199 180 157 170 129 77 43 42 43 59
151 131 116 123 141 155 163 169 161 152 136 124 128 150 171 204 220 227 240 258 273 294 301 307 309 304 290 261 233 221 217 222 222 219 223 234 226 221 220 283 333 318 270
137 125 113 115 125 141 151 163 154 140 126 125 131 139 204 267 277 281 279 280 284 286 288 293 298 299 295 279 262 250 242 237 233 226 227 229 231 235 233 230 289 288 273
136 129 118 109 99 96 95 103 122 138 134 116 91 57 3 337 320 308 301 299 300 300 301 305 306 302 294 284 273 262 253 249 248 241 233 230 229 236 228 224 248 263 257
133 127 113 98 84 75 80 82 76 71 68 67 54 32 16 354 337 329 324 318 313 309 305 304 303 300 296 290 282 271 263 259 256 248 240 235 232 244 229 218 234 248 258
136 129 121 107 94 93 89 82 75 67 55 44 39 31 16 4 354 342 330 325 321 315 309 305 299 295 290 285 279 274 265 258 257 255 246 241 234 237 232 225 239 254 261
126 125 123 117 104 91 102 100 91 76 59 42 26 25 8 340 300 303 291 284 297 317 315 302 296 292 287 286 284 277 272 268 268 266 252 233 232 243 231 234 243 265 271
142 139 139 134 128 108 120 128 127 119 96 87 56 28 11 3 326 324 311 296 287 279 297 303 303 295 283 278 286 284 279 272 285 285 256 246 231 245 229 234 262 269 274
133 146 142 139 122 105 119 119 70 27 12 6 0 338 340 330 317 309 294 280 278 284 283 286 297 295 290 293 292 281 278 273 287 288 243 236 231 242 250 245 256 268 266
124 118 126 145 152 128 79 25 14 17 2 360 344 336 325 307 300 294 284 279 266 263 279 287 284 287 300 298 280 291 280 285 291 277 247 229 230 238 247 256 259 257 263
136 118 107 122 75 63 35 22 19 9 330 320 314 317 306 305 301 294 294 280 278 265 277 255 301 296 301 302 290 281 272 276 276 264 259 237 229 244 253 263 267 271 268
172 169 311 345 179 48 331 320 317 305 315 329 332 318 310 315 323 311 295 299 268 341 279 291 289 302 314 315 312 302 292 282 274 265 252 234 234 238 268 254 276 276 268
242 297 330 283 276 341 320 329 326 328 350 343 10 43 46 45 296 344 354 291 12 347 329 304 264 261 305 300 305 301 305 297 282 266 267 254 244 259 271 262 270 269 271
317 342 349 346 345 331 328 347 344 27 38 48 72 67 58 36 360 322 314 303 303 309 285 271 274 260 264 270 268 285 293 291 287 284 278 272 264 264 263 267 271 270 280
23 358 0 25 24 11 36 33 80 109 248 310 15 131 272 278 292 296 291 291 293 293 286 273 279 277 273 274 268 269 274 280 285 284 274 270 272 270 268 270 268 271 273
37 21 7 1 351 341 321 57 142 148 181 203 290 283 291 292 300 300 299 298 297 292 291 277 269 264 264 263 262 263 261 271 279 279 279 283 282 274 264 261 264 271 266
33 8 352 340 349 332 27 137 131 141 189 277 299 297 297 295 295 293 292 291 292 291 290 286 282 276 273 265 263 264 268 275 279 281 279 277 273 270 270 269 268 271 266
68 67 60 56 65 70 235 237 259 291 307 301 302 299 295 292 291 292 292 294 295 295 293 291 291 291 286 281 281 274 274 282 288 278 271 272 275 280 282 283 282 281 271
57 54 48 43 42 40 36 24 351 334 314 310 307 305 300 299 298 296 296 294 294 295 294 295 296 291 283 286 293 298 294 286 276 279 275 282 292 302 302 298 289 282 271
51 41 31 23 15 10 8 0 344 324 312 301 301 308 311 310 306 304 305 305 305 301 296 294 295 296 297 292 290 297 287 278 274 269 281 284 292 291 295 299 296 290 283
41 25 14 7 2 359 354 349 345 342 336 335 332 329 329 326 324 320 316 316 319 318 321 317 303 293 290 291 288 277 265 276 286 270 271 283 286 296 296 289 285 285 279
34 17 11 5 358 356 352 351 351 350 351 349 345 341 338 339 338 339 336 335 339 342 344 344 341 339 328 311 295 290 283 286 285 278 280 281 283 278 289 284 286 276 282
28 11 4 359 356 354 353 352 352 355 356 356 356 357 0 360 2 5 4 4 7 2 4 11 13 5 357 343 325 302 286 287 296 290 288 287 285 284 279 284 279 291 296
Wind_Speed_850mb
14 15 13 13 13 17 15 10 10 11 13 15 18 19 19 17 15 15 15 14 12 8 5 4 7 10 12 14 16 17 16 15 20 23 25 27 27 26 25 23 21 20 18
16 14 12 12 15 18 17 12 10 11 12 13 15 16 16 16 16 15 13 10 8 6 3 2 4 5 7 9 11 10 9 9 7 11 17 19 20 20 22 23 22 19 18
20 13 13 11 16 18 16 14 11 11 10 9 11 13 13 13 14 12 10 9 7 6 5 3 2 2 4 6 9 10 7 5 9 8 6 10 13 14 15 17 16 16 16
18 15 14 13 15 17 14 11 10 9 9 8 8 9 9 10 11 10 7 4 2 1 1 0 0 0 2 6 10 12 13 13 11 11 7 5 5 6 6 8 9 8 8
16 14 16 13 13 14 14 11 10 9 9 8 6 4 4 5 7 8 7 5 4 4 3 4 6 7 7 8 10 13 16 18 19 18 15 14 11 10 9 4 7 4 3
18 15 16 13 11 11 10 8 6 6 6 6 6 3 1 3 6 9 10 10 10 10 10 12 14 15 14 12 12 13 16 20 24 25 21 19 17 13 15 10 8 6 7
27 22 21 17 14 12 11 9 8 8 7 6 5 4 3 5 7 10 12 13 14 15 17 18 19 19 17 15 15 16 18 21 24 25 29 27 23 19 17 16 10 6 6
24 23 19 18 18 16 15 13 10 10 9 8 8 8 9 9 10 11 13 15 17 19 20 21 21 20 19 18 18 19 20 22 24 26 31 34 30 25 23 21 17 11 12
25 22 20 21 24 18 15 15 15 14 14 15 14 12 11 12 12 12 13 15 18 21 22 23 23 22 23 23 22 22 23 25 26 26 28 30 31 24 27 22 20 16 18
26 21 21 27 27 22 19 19 16 12 11 12 11 10 10 8 4 7 7 9 11 16 19 20 22 24 25 27 27 28 26 25 25 24 25 26 28 24 26 26 24 21 24
30 27 28 24 18 18 19 20 23 19 14 14 15 19 18 19 15 24 22 21 16 14 22 23 23 25 26 24 27 32 29 25 25 24 24 24 30 25 25 28 26 25 29
23 17 17 18 11 12 13 10 5 8 13 14 18 20 34 34 42 45 35 28 32 32 26 26 28 23 29 29 26 26 27 26 25 19 23 23 29 28 23 21 23 26 27
22 22 24 16 10 6 5 5 7 11 17 21 23 28 28 35 42 59 60 48 41 29 21 26 33 21 34 35 22 25 26 26 22 14 18 22 21 21 22 21 24 26 24
23 20 9 9 6 8 8 8 11 12 13 20 28 25 30 41 41 50 54 54 44 38 48 33 30 21 31 33 33 29 29 31 33 28 25 18 15 20 21 21 22 21 21
16 7 1 1 4 2 7 11 12 16 23 28 27 23 23 22 25 31 39 28 12 16 18 20 21 18 31 36 34 31 31 33 34 36 29 35 34 27 33 33 33 33 29
4 6 8 8 7 12 15 15 18 20 17 15 13 12 16 10 12 20 7 6 10 20 21 19 32 21 14 29 33 39 40 32 32 31 33 37 44 45 39 36 35 38 38
8 14 10 7 10 9 10 7 10 10 8 6 11 10 11 9 7 8 13 19 27 20 20 25 22 19 22 18 20 31 53 41 34 33 36 42 48 48 40 39 40 38 41
14 14 14 15 12 12 8 5 6 4 3 4 2 1 5 10 13 17 21 26 27 25 19 24 30 35 42 46 49 53 53 45 38 33 36 39 41 43 44 44 43 46 47
22 20 18 14 15 17 11 6 4 7 3 2 4 6 9 17 18 23 28 31 32 33 31 28 30 31 37 40 49 52 52 47 44 40 41 37 36 37 41 46 53 58 52
19 21 23 22 20 11 2 9 6 11 6 3 7 11 16 21 25 26 29 33 35 36 38 38 39 35 36 45 52 56 56 53 49 48 46 46 50 48 48 48 49 51 52
25 24 25 21 20 6 2 2 4 7 6 11 15 19 23 27 31 35 37 39 39 39 38 40 43 42 40 44 46 57 56 46 45 42 46 46 43 42 48 48 47 46 50
26 28 26 27 25 24 20 14 13 14 19 23 26 29 33 39 43 45 48 50 52 52 48 46 44 44 40 35 31 36 39 40 38 36 33 26 23 35 41 41 38 37 41
26 31 31 32 31 30 28 23 20 21 24 27 30 34 36 39 41 45 47 49 50 51 54 55 53 49 49 43 31 25 20 15 24 33 43 46 48 43 41 42 38 31 32
30 32 35 38 39 40 41 42 41 37 36 36 38 39 39 38 37 37 38 39 40 41 41 38 36 40 44 45 45 31 34 30 15 17 34 41 41 44 34 26 25 26 32
24 29 33 38 44 50 52 49 43 38 35 34 32 31 30 29 30 30 30 29 30 32 30 29 27 26 25 28 29 33 40 40 41 39 39 35 41 40 37 28 31 29 29
16 24 36 43 50 54 53 47 41 37 36 35 34 31 28 24 24 24 24 24 25 26 25 25 24 24 24 22 20 20 22 26 31 33 32 31 32 30 29 22 22 24 28
Wind_Direction_850mb
169 154 141 137 156 166 163 140 110 100 111 123 129 128 125 129 135 139 144 149 154 155 140 91 94 95 108 124 122 108 92 91 79 78 80 77 74 76 79 86 94 105 116
187 156 133 136 153 164 162 145 119 101 103 120 131 129 129 134 139 141 148 159 174 187 199 137 101 97 112 138 145 135 111 104 102 92 82 84 82 74 74 74 80 90 102
176 144 121 129 148 157 161 156 141 120 105 112 138 143 140 142 144 144 148 158 172 182 185 187 180 141 149 167 177 191 195 171 143 119 145 115 97 81 69 68 63 69 83
163 140 114 124 146 156 163 162 154 144 128 121 139 152 158 165 169 169 168 163 180 271 275 268 54 160 220 203 200 203 213 217 212 199 180 157 170 129 77 43 42 43 59
151 131 116 123 141 155 163 169 161 152 136 124 128 150 171 204 220 227 240 258 273 294 301 307 309 304 290 261 233 221 217 222 222 219 223 234 226 221 220 283 333 318 270
137 125 113 115 125 141 151 163 154 140 126 125 131 139 204 267 277 281 279 280 284 286 288 293 298 299 295 279 262 250 242 237 233 226 227 229 231 235 233 230 289 288 273
136 129 118 109 99 96 95 103 122 138 134 116 91 57 3 337 320 308 301 299 300 300 301 305 306 302 294 284 273 262 253 249 248 241 233 230 229 236 228 224 248 263 257
133 127 113 98 84 75 80 82 76 71 68 67 54 32 16 354 337 329 324 318 313 309 305 304 303 300 296 290 282 271 263 259 256 248 240 235 232 244 229 218 234 248 258
136 129 121 107 94 93 89 82 75 67 55 44 39 31 16 4 354 342 330 325 321 315 309 305 299 295 290 285 279 274 265 258 257 255 246 241 234 237 232 225 239 254 261
126 125 123 117 104 91 102 100 91 76 59 42 26 25 8 340 300 303 291 284 297 317 315 302 296 292 287 286 284 277 272 268 268 266 252 233 232 243 231 234 243 265 271
142 139 139 134 128 108 120 128 127 119 96 87 56 28 11 3 326 324 311 296 287 279 297 303 303 295 283 278 286 284 279 272 285 285 256 246 231 245 229 234 262 269 274
133 146 142 139 122 105 119 119 70 27 12 6 0 338 340 330 317 309 294 280 278 284 283 286 297 295 290 293 292 281 278 273 287 288 243 236 231 242 250 245 256 268 266
124 118 126 145 152 128 79 25 14 17 2 360 344 336 325 307 300 294 284 279 266 263 279 287 284 287 300 298 280 291 280 285 291 277 247 229 230 238 247 256 259 257 263
136 118 107 122 75 63 35 22 19 9 330 320 314 317 306 305 301 294 294 280 278 265 277 255 301 296 301 302 290 281 272 276 276 264 259 237 229 244 253 263 267 271 268
172 169 311 345 179 48 331 320 317 305 315 329 332 318 310 315 323 311 295 299 268 341 279 291 289 302 314 315 312 302 292 282 274 265 252 234 234 238 268 254 276 276 268
242 297 330 283 276 341 320 329 326 328 350 343 10 43 46 45 296 344 354 291 12 347 329 304 264 261 305 300 305 301 305 297 282 266 267 254 244 259 271 262 270 269 271
317 342 349 346 345 331 328 347 344 27 38 48 72 67 58 36 360 322 314 303 303 309 285 271 274 260 264 270 268 285 293 291 287 284 278 272 264 264 263 267 271 270 280
23 358 0 25 24 11 36 33 80 109 248 310 15 131 272 278 292 296 291 291 293 293 286 273 279 277 273 274 268 269 274 280 285 284 274 270 272 270 268 270 268 271 273
37 21 7 1 351 341 321 57 142 148 181 203 290 283 291 292 300 300 299 298 297 292 291 277 269 264 264 263 262 263 261 271 279 279 279 283 282 274 264 261 264 271 266
33 8 352 340 349 332 27 137 131 141 189 277 299 297 297 295 295 293 292 291 292 291 290 286 282 276 273 265 263 264 268 275 279 281 279 277 273 270 270 269 268 271 266
68 67 60 56 65 70 235 237 259 291 307 301 302 299 295 292 291 292 292 294 295 295 293 291 291 291 286 281 281 274 274 282 288 278 271 272 275 280 282 283 282 281 271
57 54 48 43 42 40 36 24 351 334 314 310 307 305 300 299 298 296 296 294 294 295 294 295 296 291 283 286 293 298 294 286 276 279 275 282 292 302 302 298 289 282 271
51 41 31 23 15 10 8 0 344 324 312 301 301 308 311 310 306 304 305 305 305 301 296 294 295 296 297 292 290 297 287 278 274 269 281 284 292 291 295 299 296 290 283
41 25 14 7 2 359 354 349 345 342 336 335 332 329 329 326 324 320 316 316 319 318 321 317 303 293 290 291 288 277 265 276 286 270 271 283 286 296 296 289 285 285 279
34 17 11 5 358 356 352 351 351 350 351 349 345 341 338 339 338 339 336 335 339 342 344 344 341 339 328 311 295 290 283 286 285 278 280 281 283 278 289 284 286 276 282
28 11 4 359 356 354 353 352 352 355 356 356 356 357 0 360 2 5 4 4 7 2 4 11 13 5 357 343 325 302 286 287 296 290 288 287 285 284 279 284 279 291 296